Tracking 19176 objects as of 25-May-2018
HD Live streaming from Space Station
objects crossing your sky now

OPS 9433 (DSCS 2-3)

Track OPS 9433 (DSCS 2-3) now!
OPS 9433 (DSCS 2-3) is classified as:


NORAD ID: 6973
Int'l Code: 1973-100A
Perigee: 36,415.2 km
Apogee: 36,671.0 km
Inclination: 12.2 °
Period: 1,474.5 minutes
Semi major axis: 42914 km
RCS: 5.3322 m2 (large)
Launch date: December 13, 1973
Source: United States (US)
Launch site: AIR FORCE EASTERN TEST RANGE (AFETR)
aabbcc
Your satellite tracking list
Your tracking list is empty




NASA's NSSDC Master Catalog

Two Line Element Set (TLE):
1  6973U 73100A   18144.81401134 -.00000201 +00000-0 +00000-0 0  9990
2  6973 012.1869 312.8843 0029794 151.3269 224.5700 00.97656920091072
Source of the keplerian elements: AFSPC